Regional Weather Roundup
Issued by NWS

Home | Current Version | Previous Version | Text Only | Print | Product List | Glossary Off
Versions: 1 2 3 4 5 6 7 8 9 10 11 12 13 14 15 16 17 18 19 20 21 22 23 24 25 26 27 28 29 30 31 32 33 34 35 36 37 38 39 40 41 42 43 44 45 46 47 48 49 50

576
ASUS44 KJAN 282110
RWRMS

MISSISSIPPI HOURLY WEATHER ROUNDUP
NATIONAL WEATHER SERVICE JACKSON MS
400 PM CDT MON JUL 28 2014

NOTE: "FAIR: INDICATES FEW OR NO CLOUDS BELOW 12,000 FEET WITH NO
SIGNIFICANT WEATHER AND/OR OBSTRUCTIONS TO VISIBILITY.

MSZ001>002-007>008-010>013-018>021-025>028-034>036-282200-
NORTHWEST MISSISSIPPI

CITY           SKY/WX    TMP DP  RH WIND       PRES   REMARKS
CLARKSDALE     FAIR      84  68  58 NW9       30.05S
CLEVELAND      FAIR      85  70  60 NW12      30.03F
GREENWOOD      SUNNY     87  66  49 NW9       30.02F
GREENVILLE     SUNNY     89  65  44 NW13      30.03F HX  91
GRENADA        FAIR      86  63  45 NW10G17   30.02F
OLIVE BRANCH   MOSUNNY   82  64  54 N12       30.04F
OXFORD         FAIR      84  61  45 N8        30.05S
TUNICA         CLEAR     84  63  48 N12       30.05S
$$

MSZ003>006-009-014>017-022>024-029>033-037>039-282200-
NORTHEAST MISSISSIPPI

CITY           SKY/WX    TMP DP  RH WIND       PRES   REMARKS
BELMONT        MOCLDY    82  63  52 N10G16    30.01S
COLUMBUS AFB   SUNNY     87  63  44 N15G22    29.99F
CORINTH        MOCLDY    82  61  47 N10       30.02S
GOLDN TRIANGLE MOSUNNY   88  64  45 N14       29.99F
STARKVILLE     FAIR      88  64  45 N8        29.99F
TUPELO         SUNNY     85  62  46 N12       30.01S
$$

MSZ040-058-282200-
CENTRAL MISSISSIPPI

CITY           SKY/WX    TMP DP  RH WIND       PRES   REMARKS
JACKSON INTL   MOSUNNY   92  65  40 NW10      30.01F HX  94
JACKSON HAWKNS SUNNY     90  66  45 NW12      30.02F HX  92
MERIDIAN KEY   PTSUNNY   92  71  50 W15       29.96F HX  98
MERIDIAN NAS   MOSUNNY   94  62  34 NW20      29.96F HX  94
RAYMOND        FAIR      90  84  84 NW8       30.03R HX 115
VICKSBURG      SUNNY     90  69  50 NW7       30.02F HX  94
$$

MSZ059>079-282200-
SOUTH MISSISSIPPI

CITY           SKY/WX    TMP DP  RH WIND       PRES   REMARKS
BROOKHAVEN     MOCLDY    88  75  66 NW8       30.04S HX  97
COLUMBIA       FAIR      90  77  66 NW9G15    30.00R HX 102
HATTIESBURG    MOSUNNY   93  74  53 W12G17    29.98F HX 103
MCCOMB         PTSUNNY   90  76  63 W13       30.02F HX 101
NATCHEZ        CLOUDY    88  79  74 N9        30.03F HX 102
PINE BELT      SUNNY     93  73  52 NW9       30.01S HX 102
$$

MSZ080>082-282200-
COASTAL MISSISSIPPI

CITY           SKY/WX    TMP DP  RH WIND       PRES   REMARKS
BAY ST LOUIS   MOSUNNY  N/A N/A N/A NW6       30.00S
BILOXI         MOSUNNY   94  75  53 VRB5      29.97F HX 104
PASCAGOULA     MOSUNNY   90  78  68 W10G17    29.97F HX 104
GULFPORT       PTSUNNY   97  74  47 NW12G18   29.97F HX 108
$$



USA.gov is the U.S. government's official web portal to all federal, state and local government web resources and services.